This is the latest recevied weather packets stored in our database for station/object KO4ZGL-13. If no packets are shown the sender has not sent any weather packets the latest 10 day(s).
| Time | Temp. | Humidity | Pressure | Rain* | Wind** | Luminosity | Snow |
|---|---|---|---|---|---|---|---|
| 1778022538 | 22.78° C | 66% | 1016.4 hPa | 0 mm | - | 24 W/m² | - |
| 1778022235 | 22.78° C | 65% | 1016.2 hPa | 0 mm | - | 26 W/m² | - |
| 1778021931 | 23.33° C | 64% | 1016.2 hPa | 0 mm | - | 29 W/m² | - |
| 1778021629 | 23.33° C | 63% | 1016.3 hPa | 0 mm | - | 29 W/m² | - |
| 1778021324 | 23.33° C | 62% | 1016.4 hPa | 0 mm | - | 30 W/m² | - |
| 1778021022 | 24.44° C | 62% | 1016.3 hPa | 0 mm | - | 56 W/m² | - |
| 1778020718 | 24.44° C | 62% | 1016.4 hPa | 0 mm | - | 127 W/m² | - |
| 1778020415 | 23.89° C | 61% | 1016.2 hPa | 0 mm | - | 48 W/m² | - |
| 1778020111 | 24.44° C | 59% | 1016.2 hPa | 0 mm | - | 185 W/m² | - |
| 1778019807 | 25° C | 59% | 1016.4 hPa | 0 mm | - | 208 W/m² | - |
| 1778019505 | 25° C | 59% | 1016.3 hPa | 0 mm | - | 228 W/m² | - |
| 1778019201 | 24.44° C | 60% | 1016.3 hPa | 0 mm | - | 203 W/m² | - |
| 1778018898 | 25° C | 58% | 1016.3 hPa | 0 mm | - | 252 W/m² | - |
| 1778018595 | 25° C | 58% | 1016.5 hPa | 0 mm | - | 273 W/m² | - |
| 1778018293 | 25° C | 58% | 1016.4 hPa | 0 mm | - | 253 W/m² | - |
| 1778017991 | 25.56° C | 58% | 1016.4 hPa | 0 mm | - | 272 W/m² | - |
| 1778017689 | 25° C | 57% | 1016.4 hPa | 0 mm | - | 289 W/m² | - |
| 1778017386 | 25.56° C | 57% | 1016.5 hPa | 0 mm | - | 252 W/m² | - |
| 1778017083 | 25.56° C | 55% | 1016.6 hPa | 0 mm | - | 300 W/m² | - |
| 1778016781 | 25.56° C | 53% | 1016.5 hPa | 0 mm | - | 274 W/m² | - |
| 1778016476 | 25.56° C | 55% | 1016.6 hPa | 0 mm | - | 255 W/m² | - |
| 1778016174 | 26.11° C | 52% | 1016.6 hPa | 0 mm | - | 370 W/m² | - |
| 1778015870 | 26.67° C | 51% | 1016.3 hPa | 0 mm | - | 364 W/m² | - |
| 1778015568 | 26.67° C | 51% | 1016.5 hPa | 0 mm | - | 406 W/m² | - |
| 1778015264 | 26.67° C | 50% | 1016.7 hPa | 0 mm | - | 432 W/m² | - |
* Rain latest hour (hover to see other rain measurements)
** Current wind speed in m/s (hover to see current wind gust speed)